Voltar ao catálogo

STARLINK-4128

AtivoComunicaçõesVLEO
NORAD 53249·PAYLOAD·🇺🇸 United States

Lançado Jul 24, 2022 de Cape Canaveral Space Force Station

Loading…

Próximas Passagens (próximas 24 horas)

TLE

AtualizadoSource: CelesTrak SupGP

Época: Sep 14, 2026, 21:06 UTC

1 53249C 22086H   26257.87965278  .00042607  00000+0  13705-2 0  2578
2 53249  53.1580  51.2407 0001255  78.5597  28.8684 15.31673058    16

Acompanhe STARLINK-4128 em tempo real com AllMySat

Download on the App Store